Header for Extended Forecast Station List Page

Search by: ID | Name | Date | Parm | Value | Avg | % Avg
Sort by: ID | Name | Date | Parm | Value | Avg | % Avg

Enter search or view all records.

Click on id for station plot
#IDNameDateParmValueAvg% Avg
0LYDM8KOOTENAI-LIBBY DAM07-28-2014INFLOW (KAF)1214161675
1LEOI1KOOTENAI-AT LEONIA07-28-2014DISCHARGE (KAF)1741214681
2BFEI1KOOTENAI-AT BONNERS FERRY07-28-2014STAGE (FT)MMM
3FCFM8NF FLATHEAD-NEAR COLUMBIA FALLS07-28-2014DISCHARGE (KAF)293293100
4WGCM8MF FLATHEAD-NEAR WEST GLACIER07-28-2014DISCHARGE (KAF)287241119
5HHWM8SF FLATHEAD-HUNGRY HORSE DAM07-28-2014INFLOW (KAF)262244107
6CFMM8FLATHEAD-AT COLUMBIA FALLS07-28-2014DISCHARGE (KAF)11761172100
7DLGM8CLARK FORK-AT DEER LODGE07-28-2014DISCHARGE (KAF)5248109
8DRMM8CLARK FORK-NR DRUMMOND07-28-2014DISCHARGE (KAF)140MM
9RCCM8ROCK CREEK-NEAR CLINTON07-28-2014DISCHARGE (KAF)576587
10BONM8BLACKFOOT-NEAR BONNER07-28-2014DISCHARGE (KAF)15817192
11ABOM8CLARK FORK-ABOVE MISSOULA07-28-2014DISCHARGE (KAF)36938097
12BITM8BITTERROOT-NEAR MISSOULA07-28-2014DISCHARGE (KAF)273226121
13BELM8CLARK FORK-BELOW MISSOULA07-28-2014DISCHARGE (KAF)646612106
14STRM8ST. REGIS-NEAR ST. REGIS07-28-2014DISCHARGE (KAF)3230106
15SRGM8CLARK FORK-AT ST REGIS07-28-2014DISCHARGE (KAF)811800101
16KERM8FLATHEAD-KERR DAM07-28-2014INFLOW (KAF)1348139996
17NOXM8CLARK FORK-NOXON RAPIDS DAM07-28-2014INFLOW (KAF)2560292188
18CABI1CLARK FORK-CABINET GORGE DAM07-28-2014INFLOW (KAF)2824308392
19PRTI1PRIEST-NEAR PRIEST RIVER07-28-2014DISCHARGE (KAF)12516974
20ALFW1PEND OREILLE-ALBENI FALLS DAM07-28-2014INFLOW (KAF)2788338682
21HOPI1PEND OREILLE-PEND OREILLE LAKE NR HOPE07-28-2014LAKE ELEVATION (FT)MMM
22COEI1COEUR D ALENE-COEUR D ALENE LAKE07-28-2014INFLOW (KAF)23324296
23SPOW1SPOKANE-AT SPOKANE07-28-2014DISCHARGE (KAF)459MM
24LLKW1SPOKANE-AT LONGLAKE07-28-2014INFLOW (KAF)618620100
25SATI1ST MARIES-NEAR SANTA07-28-2014DISCHARGE (KAF)171796
26SJMI1ST JOE-AT ST MARIES07-28-2014STAGE (FT)MMM
27CIBW1COLUMBIA-AT INTL BOUNDARY07-28-2014DISCHARGE (KAF)18886MM
28LAUW1KETTLE-AT LAURIER07-28-2014DISCHARGE (KAF)10714574
29GCDW1COLUMBIA-GRAND COULEE DAM07-28-2014INFLOW (KAF)196692014198
30CHJW1COLUMBIA-CHIEF JOSEPH DAM07-28-2014INFLOW (KAF)194051999097
31TONW1OKANOGAN-NEAR TONASKET07-28-2014DISCHARGE (KAF)26429888
32PATW1METHOW-NEAR PATEROS07-28-2014DISCHARGE (KAF)10212284
33WELW1COLUMBIA-WELLS DAM07-28-2014INFLOW (KAF)197872022598
34CHDW1CHELAN-LAKE CHELAN DAM07-28-2014INFLOW (KAF)17722380
35RRHW1COLUMBIA-ROCKY REACH DAM07-28-2014INFLOW (KAF)199952071797
36ARDW1ENTIAT-NEAR ARDENVOIR07-28-2014DISCHARGE (KAF)263087
37PESW1WENATCHEE-AT PESHASTIN07-28-2014DISCHARGE (KAF)295270109
38WANW1COLUMBIA-WANAPUM DAM07-28-2014INFLOW (KAF)203072055599
39PRWW1COLUMBIA-PRIEST RAPIDS DAM07-28-2014INFLOW (KAF)203142092897
40KEDW1YAKIMA-KEECHELUS LAKE07-28-2014INFLOW (KAF)3929132
41KADW1KACHESS-KACHESS DAM07-28-2014INFLOW (KAF)2919153
42EASW1YAKIMA-AT EASTON07-28-2014DISCHARGE (KAF)12569181
43CLUW1CLE ELUM-CLE ELUM LAKE07-28-2014INFLOW (KAF)9975132
44TNAW1TEANAWAY-BELOW FORKS07-28-2014DISCHARGE (KAF)1310124
45UMTW1YAKIMA-AT UMTANUM07-28-2014DISCHARGE (KAF)616490126
46BUDW1BUMPING-BUMPING LAKE DAM07-28-2014INFLOW (KAF)2522115
47CLFW1NACHES-NEAR CLIFFDEL07-28-2014DISCHARGE (KAF)638278
48RILW1TIETON-RIMROCK LAKE NEAR RIMROCK07-28-2014INFLOW (KAF)8464131
49NACW1NACHES-NEAR NACHES07-28-2014DISCHARGE (KAF)128110117
50PARW1YAKIMA-NEAR PARKER07-28-2014DISCHARGE (KAF)357179200
51KIOW1YAKIMA-AT KIONA07-28-2014DISCHARGE (KAF)616476129
52IPDI1HENRYS FORK-ISLAND PARK DAM07-28-2014INFLOW (KAF)10814176
53CHEI1FALLS-NEAR CHESTER07-28-2014DISCHARGE (KAF)11282135
54ANTI1HENRYS FORK-AT ST. ANTHONY07-28-2014DISCHARGE (KAF)29232091
55TEAI1TETON-NEAR ST. ANTHONY07-28-2014DISCHARGE (KAF)13715787
56REXI1HENRYS FORK-AT REXBURG07-28-2014DISCHARGE (KAF)36838296
57JLKW4SNAKE-JACKSON LAKE AT DAM07-28-2014INFLOW (KAF)13814993
58JKSW4SNAKE-NEAR JACKSON07-28-2014DISCHARGE (KAF)66571493
59ALPW4SNAKE-NEAR ALPINE07-28-2014DISCHARGE (KAF)81385495
60PLDI1SF SNAKE-PALISADES DAM07-28-2014INFLOW (KAF)1130119095
61HEII1SNAKE-NEAR HEISE07-28-2014DISCHARGE (KAF)14731458101
62RIDI1WILLOW CREEK-RIRIE DAM07-28-2014INFLOW (KAF)3644
63SIFI1SNAKE-AB EAGLE ROCK NR IDAHO FALLS07-28-2014DISCHARGE (KAF)11681116105
64SHYI1SNAKE-NEAR SHELLEY07-28-2014DISCHARGE (KAF)1071900119
65SNAI1SNAKE-AT BLACKFOOT07-28-2014DISCHARGE (KAF)732580126
66BFTI1SNAKE-NEAR BLACKFOOT07-28-2014DISCHARGE (KAF)736587125
67PIHI1PORTNEUF-AT POCATELLO07-28-2014DISCHARGE (KAF)303389
68AFRI1SNAKE-AMERICAN FALLS RESERVOIR07-28-2014INFLOW (KAF)13511248108
69MILI1SNAKE-AT MILNER07-28-2014DISCHARGE (KAF)188170110
70HOTI1BRUNEAU-NEAR HOT SPRINGS07-28-2014DISCHARGE (KAF)132262
71SWAI1SNAKE-BELOW SWAN FALLS07-28-2014DISCHARGE (KAF)1837213086
72HWRI1BIG LOST-AT HOWELL RANCH NEAR CHILLY07-28-2014DISCHARGE (KAF)193653
73MACI1BIG LOST-MACKAY RESERVOIR NEAR MACKAY07-28-2014INFLOW (KAF)2824117
74HALI1BIG WOOD-AT HAILEY07-28-2014DISCHARGE (KAF)355465
75MAGI1BIG WOOD-MAGIC DAM07-28-2014INFLOW (KAF)122841
76LWRI1LITTLE WOOD-LITTLE WOOD DAM07-28-2014INFLOW (KAF)91562
77OWYO3OWYHEE-BELOW OWYHEE DAM07-28-2014INFLOW (KAF)265249
78ARAI1SF BOISE-ANDERSON RANCH DAM07-28-2014INFLOW (KAF)7670108
79LUCI1BOISE-LUCKY PEAK DAM07-28-2014INFLOW (KAF)267MM
80BIGI1BOISE-AT GLENWOOD BRIDGE07-28-2014DISCHARGE (KAF)10013177
81PARI1BOISE-NEAR PARMA07-28-2014DISCHARGE (KAF)17122178
82WRMO3MALHEUR-WARM SPRINGS DAM07-28-2014INFLOW (KAF)65113
83BERO3MALHEUR-AGENCY VALLEY DAM07-28-2014INFLOW (KAF)98110
84BULO3BULLY CREEK-BULLY CREEK DAM07-28-2014INFLOW (KAF)0068
85VALO3MALHEUR-NEAR VALE07-28-2014DISCHARGE (KAF)32612
86CSDI1NF PAYETTE-CASCADE DAM07-28-2014INFLOW (KAF)7669110
87DEDI1DEADWOOD-NEAR LOWMAN07-28-2014INFLOW (KAF)171987
88EMMI1PAYETTE-NEAR EMMETT07-28-2014DISCHARGE (KAF)27839670
89WSRI1WEISER-NEAR WEISER07-28-2014DISCHARGE (KAF)425084
90WEII1SNAKE-AT WEISER07-28-2014DISCHARGE (KAF)2559310982
91BRNI1SNAKE-BROWNLEE DAM07-28-2014INFLOW (KAF)2697316585
92WHBI1SALMON-AT WHITEBIRD07-28-2014DISCHARGE (KAF)1071120189
93TRYO3GRANDE RONDE-TROY07-28-2014DISCHARGE (KAF)13420067
94ANAW1SNAKE-NEAR ANATONE07-28-2014DISCHARGE (KAF)3863470082
95ORFI1CLEARWATER-AT OROFINO07-28-2014DISCHARGE (KAF)516500103
96DWRI1NF CLEARWATER-DWORSHAK DAM07-28-2014INFLOW (KAF)408368111
97SPDI1CLEARWATER-AT SPALDING07-28-2014DISCHARGE (KAF)17671038170
98LGDW1SNAKE-LOWER GRANITE DAM07-28-2014INFLOW (KAF)5628582097
99LGSW1SNAKE-LITTLE GOOSE DAM07-28-2014INFLOW (KAF)5635585496
100LMNW1SNAKE-LOWER MONUMENTAL DAM07-28-2014INFLOW (KAF)5636586296
101IHDW1SNAKE-ICE HARBOR DAM07-28-2014INFLOW (KAF)5641576798
102TCHW1WALLA WALLA-NEAR TOUCHET07-28-2014DISCHARGE (KAF)1714123
103MCDW1COLUMBIA-MCNARY DAM07-28-2014INFLOW (KAF)266842768296
104GIBO3UMATILLA-NEAR GIBBON07-28-2014DISCHARGE (KAF)1613122
105PDTO3UMATILLA-AT PENDLETON07-28-2014DISCHARGE (KAF)2115143
106MYKO3MCKAY CREEK-NEAR PILOT ROCK07-28-2014DISCHARGE (KAF)21158
107UMAO3UMATILLA-NEAR UMATILLA07-28-2014DISCHARGE (KAF)4714326
108MONO3NF JOHN DAY-AT MONUMENT07-28-2014DISCHARGE (KAF)5036139
109SERO3JOHN DAY-AT SERVICE CK07-28-2014DISCHARGE (KAF)576489
110JDAO3COLUMBIA-JOHN DAY DAM07-28-2014INFLOW (KAF)271932810197
111MODO3DESCHUTES-AT MOODY NR BIGGS07-28-2014DISCHARGE (KAF)1078111297
112TDAO3COLUMBIA-THE DALLES DAM07-28-2014INFLOW (KAF)278122889396
113PITW1KLICKITAT-NEAR PITT07-28-2014DISCHARGE (KAF)18819099
114HODO3HOOD-NEAR TUCKER BRIDGE07-28-2014DISCHARGE (KAF)127103123
115UNDW1WHITE SALMON-NEAR UNDERWOOD07-28-2014DISCHARGE (KAF)162158103
116BONO3COLUMBIA-BONNEVILLE DAM07-28-2014INFLOW (KAF)28300MM